,,PressureMeas_1m,,PRMeasQMR101_1,,RHStat155_1m_1,,SRMeasQMS101R_1m,,TAStat155_1m_1,,GenWind_1,,GenWind_1,
2017-04-04, 00:00:07,VALID,920.346,VALID,0.0,VALID,88.914,VALID,0.009,VALID,20.005,VALID,14.0,VALID,0.26,
2017-04-04, 00:01:07,VALID,920.337,VALID,0.0,VALID,87.903,VALID,-0.007,VALID,19.985,VALID,9.0,VALID,0.312,
2017-04-04, 00:02:07,VALID,920.33,VALID,0.0,VALID,87.623,VALID,-0.0,VALID,19.979,VALID,4.0,VALID,0.446,
2017-04-04, 00:03:07,VALID,920.325,VALID,0.0,VALID,87.815,VALID,0.005,VALID,19.976,VALID,3.0,VALID,0.37,
2017-04-04, 00:04:07,VALID,920.326,VALID,0.0,VALID,87.775,VALID,0.012,VALID,19.952,VALID,3.0,VALID,0.168,
2017-04-04, 00:05:07,VALID,920.305,VALID,0.0,VALID,88.313,VALID,0.006,VALID,19.952,VALID,3.0,VALID,0.011,
2017-04-04, 00:06:07,VALID,920.296,VALID,0.0,VALID,87.938,VALID,0.014,VALID,19.963,VALID,354.0,VALID,0.227,
2017-04-04, 00:07:07,VALID,920.293,VALID,0.0,VALID,87.949,VALID,0.004,VALID,19.981,VALID,354.0,VALID,0.335,
2017-04-04, 00:08:07,VALID,920.283,VALID,0.0,VALID,88.034,VALID,0.023,VALID,19.94,VALID,352.0,VALID,0.484,
2017-04-04, 00:09:07,VALID,920.282,VALID,0.0,VALID,88.115,VALID,0.04,VALID,19.893,VALID,356.0,VALID,0.537,
2017-04-04, 00:10:07,VALID,920.261,VALID,0.0,VALID,88.164,VALID,0.027,VALID,19.875,VALID,351.0,VALID,0.54,
2017-04-04, 00:11:07,VALID,920.236,VALID,0.0,VALID,88.048,VALID,0.028,VALID,19.903,VALID,346.0,VALID,0.328,
2017-04-04, 00:12:07,VALID,920.218,VALID,0.0,VALID,87.915,VALID,0.04,VALID,19.952,VALID,328.0,VALID,0.093,
2017-04-04, 00:13:07,VALID,920.188,VALID,0.0,VALID,88.33,VALID,0.037,VALID,20.015,VALID,308.0,VALID,0.195,
2017-04-04, 00:14:07,VALID,920.173,VALID,0.0,VALID,88.749,VALID,0.05,VALID,20.046,VALID,301.0,VALID,0.039,
2017-04-04, 00:15:07,VALID,920.158,VALID,0.0,VALID,89.229,VALID,0.022,VALID,19.997,VALID,316.0,VALID,0.173,
2017-04-04, 00:16:07,VALID,920.143,VALID,0.0,VALID,89.139,VALID,0.037,VALID,19.992,VALID,323.0,VALID,0.164,
2017-04-04, 00:17:07,VALID,920.126,VALID,0.0,VALID,90.086,VALID,0.042,VALID,20.014,VALID,314.0,VALID,0.159,
2017-04-04, 00:18:07,VALID,920.113,VALID,0.0,VALID,89.834,VALID,0.02,VALID,19.971,VALID,314.0,VALID,0.074,
2017-04-04, 00:19:07,VALID,920.11,VALID,0.0,VALID,89.749,VALID,0.025,VALID,19.898,VALID,350.0,VALID,0.336,
2017-04-04, 00:20:07,VALID,920.122,VALID,0.0,VALID,89.2,VALID,0.023,VALID,19.85,VALID,344.0,VALID,0.632,
2017-04-04, 00:21:07,VALID,920.119,VALID,0.0,VALID,88.896,VALID,0.005,VALID,19.868,VALID,351.0,VALID,0.547,
2017-04-04, 00:22:07,VALID,920.109,VALID,0.0,VALID,88.684,VALID,0.001,VALID,19.887,VALID,354.0,VALID,0.675,
2017-04-04, 00:23:07,VALID,920.104,VALID,0.0,VALID,88.493,VALID,0.006,VALID,19.891,VALID,354.0,VALID,0.779,
2017-04-04, 00:24:07,VALID,920.1,VALID,0.0,VALID,88.355,VALID,-0.002,VALID,19.897,VALID,352.0,VALID,0.46,
2017-04-04, 00:25:07,VALID,920.104,VALID,0.0,VALID,88.422,VALID,0.003,VALID,19.934,VALID,345.0,VALID,0.392,
2017-04-04, 00:26:07,VALID,920.083,VALID,0.0,VALID,87.849,VALID,0.02,VALID,19.96,VALID,357.0,VALID,0.905,
2017-04-04, 00:27:07,VALID,920.055,VALID,0.0,VALID,87.484,VALID,0.019,VALID,19.949,VALID,1.0,VALID,1.141,
2017-04-04, 00:28:07,VALID,920.024,VALID,0.0,VALID,87.236,VALID,0.008,VALID,19.942,VALID,357.0,VALID,0.846,
2017-04-04, 00:29:07,VALID,919.991,VALID,0.0,VALID,87.618,VALID,0.004,VALID,19.931,VALID,6.0,VALID,0.729,
2017-04-04, 00:30:07,VALID,919.962,VALID,0.0,VALID,87.843,VALID,0.015,VALID,19.886,VALID,2.0,VALID,0.804,
2017-04-04, 00:31:07,VALID,919.929,VALID,0.0,VALID,88.375,VALID,-0.005,VALID,19.808,VALID,2.0,VALID,0.781,
2017-04-04, 00:32:07,VALID,919.905,VALID,0.0,VALID,88.524,VALID,-0.002,VALID,19.773,VALID,357.0,VALID,0.857,
2017-04-04, 00:33:07,VALID,919.907,VALID,0.0,VALID,88.717,VALID,0.0,VALID,19.768,VALID,338.0,VALID,0.818,
2017-04-04, 00:34:07,VALID,919.895,VALID,0.0,VALID,88.234,VALID,0.006,VALID,19.803,VALID,330.0,VALID,0.796,
2017-04-04, 00:35:07,VALID,919.892,VALID,0.0,VALID,88.284,VALID,0.012,VALID,19.86,VALID,322.0,VALID,0.433,
2017-04-04, 00:36:07,VALID,919.882,VALID,0.0,VALID,88.307,VALID,-0.009,VALID,19.908,VALID,293.0,VALID,0.224,
2017-04-04, 00:37:07,VALID,919.864,VALID,0.0,VALID,88.62,VALID,-0.008,VALID,19.95,VALID,329.0,VALID,0.351,
2017-04-04, 00:38:07,VALID,919.85,VALID,0.0,VALID,88.641,VALID,-0.015,VALID,19.971,VALID,343.0,VALID,0.524,
2017-04-04, 00:39:07,VALID,919.844,VALID,0.0,VALID,88.285,VALID,-0.007,VALID,19.961,VALID,344.0,VALID,0.36,
2017-04-04, 00:40:07,VALID,919.828,VALID,0.0,VALID,88.466,VALID,0.005,VALID,19.926,VALID,342.0,VALID,0.543,
2017-04-04, 00:41:07,VALID,919.823,VALID,0.0,VALID,88.049,VALID,-0.006,VALID,19.901,VALID,336.0,VALID,0.641,
2017-04-04, 00:42:07,VALID,919.82,VALID,0.0,VALID,88.061,VALID,-0.009,VALID,19.891,VALID,327.0,VALID,0.418,
2017-04-04, 00:43:07,VALID,919.813,VALID,0.0,VALID,88.279,VALID,-0.024,VALID,19.897,VALID,297.0,VALID,0.542,
2017-04-04, 00:44:07,VALID,919.813,VALID,0.0,VALID,90.16,VALID,-0.001,VALID,19.915,VALID,271.0,VALID,0.283,
2017-04-04, 00:45:07,VALID,919.801,VALID,0.0,VALID,92.125,VALID,-0.004,VALID,19.925,VALID,276.0,VALID,0.164,
2017-04-04, 00:46:07,VALID,919.772,VALID,0.0,VALID,91.935,VALID,-0.009,VALID,19.888,VALID,290.0,VALID,0.208,
2017-04-04, 00:47:07,VALID,919.772,VALID,0.0,VALID,92.838,VALID,0.01,VALID,19.889,VALID,287.0,VALID,0.011,
2017-04-04, 00:48:07,VALID,919.754,VALID,0.0,VALID,90.725,VALID,-0.024,VALID,19.854,VALID,359.0,VALID,0.42,
2017-04-04, 00:49:07,VALID,919.745,VALID,0.0,VALID,89.759,VALID,-0.008,VALID,19.843,VALID,360.0,VALID,0.555,
2017-04-04, 00:50:07,VALID,919.733,VALID,0.0,VALID,88.863,VALID,-0.01,VALID,19.79,VALID,5.0,VALID,0.772,
2017-04-04, 00:51:07,VALID,919.725,VALID,0.0,VALID,88.167,VALID,0.039,VALID,19.731,VALID,4.0,VALID,0.877,
2017-04-04, 00:52:07,VALID,919.714,VALID,0.0,VALID,88.201,VALID,0.036,VALID,19.675,VALID,1.0,VALID,0.874,
2017-04-04, 00:53:07,VALID,919.693,VALID,0.0,VALID,87.755,VALID,0.034,VALID,19.701,VALID,8.0,VALID,0.827,
2017-04-04, 00:54:07,VALID,919.664,VALID,0.0,VALID,87.587,VALID,0.038,VALID,19.741,VALID,21.0,VALID,0.895,
2017-04-04, 00:55:07,VALID,919.642,VALID,0.0,VALID,87.491,VALID,0.041,VALID,19.756,VALID,18.0,VALID,0.714,
2017-04-04, 00:56:07,VALID,919.619,VALID,0.0,VALID,87.332,VALID,0.028,VALID,19.766,VALID,20.0,VALID,0.78,
2017-04-04, 00:57:07,VALID,919.613,VALID,0.0,VALID,87.713,VALID,0.032,VALID,19.735,VALID,17.0,VALID,0.626,
2017-04-04, 00:58:07,VALID,919.601,VALID,0.0,VALID,87.416,VALID,0.014,VALID,19.718,VALID,16.0,VALID,0.899,
2017-04-04, 00:59:07,VALID,919.605,VALID,0.0,VALID,87.454,VALID,0.028,VALID,19.72,VALID,9.0,VALID,0.697,
2017-04-04, 01:00:07,VALID,919.605,VALID,0.0,VALID,87.456,VALID,0.039,VALID,19.716,VALID,8.0,VALID,0.744,
2017-04-04, 01:01:07,VALID,919.603,VALID,0.0,VALID,87.516,VALID,0.038,VALID,19.731,VALID,11.0,VALID,0.429,
2017-04-04, 01:02:07,VALID,919.603,VALID,0.0,VALID,87.888,VALID,0.036,VALID,19.687,VALID,13.0,VALID,0.37,
2017-04-04, 01:03:07,VALID,919.586,VALID,0.0,VALID,87.977,VALID,0.029,VALID,19.629,VALID,17.0,VALID,0.611,
2017-04-04, 01:04:07,VALID,919.579,VALID,0.0,VALID,88.124,VALID,0.036,VALID,19.594,VALID,21.0,VALID,0.789,
2017-04-04, 01:05:07,VALID,919.57,VALID,0.0,VALID,88.192,VALID,0.019,VALID,19.59,VALID,16.0,VALID,0.725,
2017-04-04, 01:06:07,VALID,919.569,VALID,0.0,VALID,88.106,VALID,0.01,VALID,19.628,VALID,9.0,VALID,0.73,
2017-04-04, 01:07:07,VALID,919.569,VALID,0.0,VALID,87.893,VALID,0.009,VALID,19.672,VALID,3.0,VALID,0.62,
2017-04-04, 01:08:07,VALID,919.558,VALID,0.0,VALID,87.677,VALID,0.02,VALID,19.735,VALID,2.0,VALID,0.372,
2017-04-04, 01:09:07,VALID,919.537,VALID,0.0,VALID,87.487,VALID,0.013,VALID,19.766,VALID,2.0,VALID,0.363,
2017-04-04, 01:10:07,VALID,919.517,VALID,0.0,VALID,87.401,VALID,0.007,VALID,19.776,VALID,2.0,VALID,0.196,
2017-04-04, 01:11:07,VALID,919.491,VALID,0.0,VALID,87.38,VALID,0.013,VALID,19.779,VALID,3.0,VALID,0.289,
2017-04-04, 01:12:07,VALID,919.475,VALID,0.0,VALID,87.31,VALID,0.012,VALID,19.789,VALID,4.0,VALID,0.245,
2017-04-04, 01:13:07,VALID,919.461,VALID,0.0,VALID,87.304,VALID,0.004,VALID,19.777,VALID,5.0,VALID,0.505,
2017-04-04, 01:14:07,VALID,919.453,VALID,0.0,VALID,87.228,VALID,0.008,VALID,19.783,VALID,10.0,VALID,0.784,
2017-04-04, 01:15:07,VALID,919.464,VALID,0.0,VALID,87.187,VALID,0.007,VALID,19.786,VALID,12.0,VALID,0.898,
2017-04-04, 01:16:07,VALID,919.45,VALID,0.0,VALID,87.096,VALID,0.012,VALID,19.791,VALID,2.0,VALID,0.854,
2017-04-04, 01:17:07,VALID,919.44,VALID,0.0,VALID,87.117,VALID,0.007,VALID,19.799,VALID,7.0,VALID,0.72,
2017-04-04, 01:18:07,VALID,919.424,VALID,0.0,VALID,87.243,VALID,0.004,VALID,19.771,VALID,9.0,VALID,0.81,
2017-04-04, 01:19:07,VALID,919.415,VALID,0.0,VALID,86.811,VALID,0.026,VALID,19.845,VALID,16.0,VALID,0.9,
2017-04-04, 01:20:07,VALID,919.38,VALID,0.0,VALID,86.513,VALID,0.006,VALID,19.902,VALID,18.0,VALID,0.998,
2017-04-04, 01:21:07,VALID,919.348,VALID,0.0,VALID,86.187,VALID,-0.027,VALID,19.959,VALID,21.0,VALID,0.939,
2017-04-04, 01:22:07,VALID,919.314,VALID,0.0,VALID,85.983,VALID,-0.028,VALID,19.99,VALID,19.0,VALID,0.921,
2017-04-04, 01:23:07,VALID,919.302,VALID,0.0,VALID,85.881,VALID,-0.002,VALID,20.016,VALID,12.0,VALID,1.073,
2017-04-04, 01:24:07,VALID,919.284,VALID,0.0,VALID,85.624,VALID,-0.005,VALID,20.111,VALID,21.0,VALID,0.86,
2017-04-04, 01:25:07,VALID,919.267,VALID,0.0,VALID,85.415,VALID,-0.006,VALID,20.122,VALID,18.0,VALID,0.9,
2017-04-04, 01:26:07,VALID,919.265,VALID,0.0,VALID,85.539,VALID,-0.005,VALID,20.122,VALID,20.0,VALID,0.644,
2017-04-04, 01:27:07,VALID,919.262,VALID,0.0,VALID,85.747,VALID,-0.002,VALID,20.109,VALID,19.0,VALID,0.622,
2017-04-04, 01:28:07,VALID,919.259,VALID,0.0,VALID,86.176,VALID,0.003,VALID,20.112,VALID,4.0,VALID,0.67,
2017-04-04, 01:29:07,VALID,919.252,VALID,0.0,VALID,86.224,VALID,-0.009,VALID,20.162,VALID,1.0,VALID,0.499,
2017-04-04, 01:30:07,VALID,919.235,VALID,0.0,VALID,85.804,VALID,-0.008,VALID,20.226,VALID,4.0,VALID,0.33,
2017-04-04, 01:31:07,VALID,919.226,VALID,0.0,VALID,85.479,VALID,0.002,VALID,20.275,VALID,12.0,VALID,0.292,
2017-04-04, 01:32:06,VALID,919.212,VALID,0.0,VALID,85.243,VALID,-0.007,VALID,20.289,VALID,17.0,VALID,0.353,
2017-04-04, 01:33:06,VALID,919.212,VALID,0.0,VALID,85.232,VALID,-0.013,VALID,20.261,VALID,17.0,VALID,0.271,
2017-04-04, 01:34:06,VALID,919.23,VALID,0.0,VALID,85.328,VALID,-0.018,VALID,20.259,VALID,17.0,VALID,0.184,
2017-04-04, 01:35:06,VALID,919.228,VALID,0.0,VALID,85.146,VALID,-0.006,VALID,20.321,VALID,17.0,VALID,0.008,
2017-04-04, 01:36:06,VALID,919.224,VALID,0.0,VALID,84.844,VALID,0.014,VALID,20.367,VALID,17.0,VALID,0.0,
2017-04-04, 01:37:06,VALID,919.213,VALID,0.0,VALID,84.877,VALID,0.019,VALID,20.396,VALID,17.0,VALID,0.0,
2017-04-04, 01:38:06,VALID,919.209,VALID,0.0,VALID,84.6,VALID,0.006,VALID,20.383,VALID,17.0,VALID,0.0,
2017-04-04, 01:39:06,VALID,919.201,VALID,0.0,VALID,84.701,VALID,0.007,VALID,20.37,VALID,17.0,VALID,0.001,
2017-04-04, 01:40:06,VALID,919.195,VALID,0.0,VALID,84.778,VALID,0.012,VALID,20.29,VALID,17.0,VALID,0.007,
2017-04-04, 01:41:06,VALID,919.193,VALID,0.0,VALID,85.244,VALID,0.007,VALID,20.143,VALID,17.0,VALID,0.0,
2017-04-04, 01:42:06,VALID,919.199,VALID,0.0,VALID,85.901,VALID,0.021,VALID,19.984,VALID,17.0,VALID,0.008,
2017-04-04, 01:43:06,VALID,919.202,VALID,0.0,VALID,86.91,VALID,0.02,VALID,19.821,VALID,17.0,VALID,0.001,
2017-04-04, 01:44:06,VALID,919.215,VALID,0.0,VALID,87.675,VALID,0.003,VALID,19.704,VALID,45.0,VALID,0.045,
2017-04-04, 01:45:06,VALID,919.21,VALID,0.0,VALID,88.225,VALID,0.012,VALID,19.62,VALID,80.0,VALID,0.013,
2017-04-04, 01:46:06,VALID,919.208,VALID,0.0,VALID,88.683,VALID,0.024,VALID,19.575,VALID,78.0,VALID,0.043,
2017-04-04, 01:47:06,VALID,919.191,VALID,0.0,VALID,88.706,VALID,0.003,VALID,19.61,VALID,69.0,VALID,0.031,
2017-04-04, 01:48:06,VALID,919.196,VALID,0.0,VALID,88.901,VALID,-0.001,VALID,19.605,VALID,69.0,VALID,0.002,
2017-04-04, 01:49:06,VALID,919.188,VALID,0.0,VALID,88.991,VALID,0.019,VALID,19.588,VALID,69.0,VALID,0.0,
2017-04-04, 01:50:06,VALID,919.188,VALID,0.0,VALID,88.918,VALID,0.002,VALID,19.596,VALID,65.0,VALID,0.048,
2017-04-04, 01:51:06,VALID,919.186,VALID,0.0,VALID,88.886,VALID,0.007,VALID,19.592,VALID,55.0,VALID,0.041,
2017-04-04, 01:52:06,VALID,919.186,VALID,0.0,VALID,88.946,VALID,0.008,VALID,19.57,VALID,39.0,VALID,0.213,
2017-04-04, 01:53:06,VALID,919.19,VALID,0.0,VALID,89.361,VALID,-0.007,VALID,19.609,VALID,19.0,VALID,0.277,
2017-04-04, 01:54:06,VALID,919.189,VALID,0.0,VALID,89.08,VALID,-0.009,VALID,19.706,VALID,16.0,VALID,0.428,
2017-04-04, 01:55:06,VALID,919.187,VALID,0.0,VALID,88.803,VALID,0.008,VALID,19.805,VALID,11.0,VALID,0.543,
2017-04-04, 01:56:06,VALID,919.178,VALID,0.0,VALID,88.614,VALID,0.012,VALID,19.901,VALID,11.0,VALID,0.663,
2017-04-04, 01:57:06,VALID,919.168,VALID,0.0,VALID,88.351,VALID,-0.012,VALID,19.983,VALID,10.0,VALID,0.676,
2017-04-04, 01:58:06,VALID,919.15,VALID,0.0,VALID,88.325,VALID,-0.014,VALID,20.026,VALID,9.0,VALID,0.699,
2017-04-04, 01:59:06,VALID,919.137,VALID,0.0,VALID,88.233,VALID,-0.003,VALID,20.055,VALID,8.0,VALID,0.434,
2017-04-04, 02:00:06,VALID,919.129,VALID,0.0,VALID,87.95,VALID,-0.014,VALID,20.064,VALID,7.0,VALID,0.48,
2017-04-04, 02:01:06,VALID,919.133,VALID,0.0,VALID,87.793,VALID,-0.008,VALID,20.09,VALID,7.0,VALID,0.424,
2017-04-04, 02:02:06,VALID,919.123,VALID,0.0,VALID,87.656,VALID,-0.018,VALID,20.134,VALID,6.0,VALID,0.314,
2017-04-04, 02:03:06,VALID,919.134,VALID,0.0,VALID,87.486,VALID,-0.011,VALID,20.166,VALID,3.0,VALID,0.289,
2017-04-04, 02:04:06,VALID,919.135,VALID,0.0,VALID,87.377,VALID,-0.011,VALID,20.15,VALID,353.0,VALID,0.615,
2017-04-04, 02:05:06,VALID,919.136,VALID,0.0,VALID,87.365,VALID,0.001,VALID,20.142,VALID,353.0,VALID,0.574,
2017-04-04, 02:06:06,VALID,919.125,VALID,0.0,VALID,87.517,VALID,-0.01,VALID,20.146,VALID,356.0,VALID,0.566,
2017-04-04, 02:07:06,VALID,919.11,VALID,0.0,VALID,87.457,VALID,-0.006,VALID,20.175,VALID,360.0,VALID,0.519,
2017-04-04, 02:08:06,VALID,919.105,VALID,0.0,VALID,87.344,VALID,-0.009,VALID,20.166,VALID,360.0,VALID,0.498,
2017-04-04, 02:09:06,VALID,919.12,VALID,0.0,VALID,87.592,VALID,-0.023,VALID,20.12,VALID,360.0,VALID,0.605,
2017-04-04, 02:10:06,VALID,919.103,VALID,0.0,VALID,87.65,VALID,-0.014,VALID,20.11,VALID,356.0,VALID,0.632,
2017-04-04, 02:11:06,VALID,919.109,VALID,0.0,VALID,87.688,VALID,-0.001,VALID,20.107,VALID,350.0,VALID,0.504,
2017-04-04, 02:12:06,VALID,919.083,VALID,0.0,VALID,87.905,VALID,-0.004,VALID,20.108,VALID,346.0,VALID,0.059,
2017-04-04, 02:13:06,VALID,919.058,VALID,0.0,VALID,87.959,VALID,-0.013,VALID,20.091,VALID,346.0,VALID,0.0,
2017-04-04, 02:14:06,VALID,919.04,VALID,0.0,VALID,88.346,VALID,-0.014,VALID,20.052,VALID,346.0,VALID,0.09,
2017-04-04, 02:15:06,VALID,919.006,VALID,0.0,VALID,88.488,VALID,-0.007,VALID,19.996,VALID,350.0,VALID,0.254,
2017-04-04, 02:16:06,VALID,918.982,VALID,0.0,VALID,88.453,VALID,-0.017,VALID,19.955,VALID,357.0,VALID,0.505,
2017-04-04, 02:17:06,VALID,918.94,VALID,0.0,VALID,88.421,VALID,-0.012,VALID,19.959,VALID,360.0,VALID,0.743,
2017-04-04, 02:18:06,VALID,918.916,VALID,0.0,VALID,88.089,VALID,-0.007,VALID,20.015,VALID,4.0,VALID,0.795,
2017-04-04, 02:19:06,VALID,918.909,VALID,0.0,VALID,87.985,VALID,-0.013,VALID,20.019,VALID,10.0,VALID,0.616,
2017-04-04, 02:20:06,VALID,918.915,VALID,0.0,VALID,88.089,VALID,-0.013,VALID,19.986,VALID,7.0,VALID,0.546,
2017-04-04, 02:21:06,VALID,918.911,VALID,0.0,VALID,88.219,VALID,0.045,VALID,19.938,VALID,353.0,VALID,0.659,
2017-04-04, 02:22:06,VALID,918.892,VALID,0.0,VALID,88.339,VALID,0.047,VALID,19.965,VALID,3.0,VALID,0.784,
2017-04-04, 02:23:06,VALID,918.848,VALID,0.0,VALID,88.477,VALID,0.048,VALID,20.016,VALID,9.0,VALID,0.989,
2017-04-04, 02:24:06,VALID,918.814,VALID,0.0,VALID,88.408,VALID,0.053,VALID,20.034,VALID,15.0,VALID,0.898,
2017-04-04, 02:25:06,VALID,918.786,VALID,0.0,VALID,88.503,VALID,0.06,VALID,19.986,VALID,14.0,VALID,0.851,
2017-04-04, 02:26:06,VALID,918.771,VALID,0.0,VALID,88.748,VALID,0.052,VALID,19.93,VALID,9.0,VALID,0.803,
2017-04-04, 02:27:06,VALID,918.754,VALID,0.0,VALID,88.963,VALID,0.045,VALID,19.876,VALID,5.0,VALID,0.837,
2017-04-04, 02:28:06,VALID,918.731,VALID,0.0,VALID,89.355,VALID,0.039,VALID,19.805,VALID,4.0,VALID,0.852,
2017-04-04, 02:29:06,VALID,918.718,VALID,0.0,VALID,89.516,VALID,0.045,VALID,19.796,VALID,3.0,VALID,1.03,
2017-04-04, 02:30:06,VALID,918.716,VALID,0.0,VALID,89.37,VALID,0.042,VALID,19.829,VALID,356.0,VALID,0.911,
2017-04-04, 02:31:06,VALID,918.714,VALID,0.0,VALID,89.312,VALID,0.026,VALID,19.842,VALID,345.0,VALID,0.669,
2017-04-04, 02:32:06,VALID,918.696,VALID,0.0,VALID,89.329,VALID,0.042,VALID,19.848,VALID,349.0,VALID,0.599,
2017-04-04, 02:33:06,VALID,918.688,VALID,0.0,VALID,89.249,VALID,0.039,VALID,19.876,VALID,351.0,VALID,0.632,
2017-04-04, 02:34:06,VALID,918.66,VALID,0.0,VALID,89.194,VALID,0.037,VALID,19.887,VALID,357.0,VALID,0.579,
2017-04-04, 02:35:06,VALID,918.665,VALID,0.0,VALID,89.058,VALID,0.043,VALID,19.915,VALID,353.0,VALID,0.476,
2017-04-04, 02:36:06,VALID,918.663,VALID,0.0,VALID,88.895,VALID,0.004,VALID,19.947,VALID,350.0,VALID,0.461,
2017-04-04, 02:37:06,VALID,918.651,VALID,0.0,VALID,88.863,VALID,0.007,VALID,19.948,VALID,348.0,VALID,0.086,
2017-04-04, 02:38:06,VALID,918.644,VALID,0.0,VALID,88.876,VALID,0.01,VALID,19.944,VALID,329.0,VALID,0.044,
2017-04-04, 02:39:06,VALID,918.64,VALID,0.0,VALID,89.095,VALID,0.007,VALID,19.921,VALID,261.0,VALID,0.045,
2017-04-04, 02:40:06,VALID,918.631,VALID,0.0,VALID,89.103,VALID,-0.0,VALID,19.886,VALID,279.0,VALID,0.081,
2017-04-04, 02:41:06,VALID,918.63,VALID,0.0,VALID,88.607,VALID,0.002,VALID,19.851,VALID,324.0,VALID,0.159,
2017-04-04, 02:42:06,VALID,918.646,VALID,0.0,VALID,89.439,VALID,-0.002,VALID,19.81,VALID,351.0,VALID,0.583,
2017-04-04, 02:43:06,VALID,918.631,VALID,0.0,VALID,89.612,VALID,0.007,VALID,19.78,VALID,354.0,VALID,0.795,
2017-04-04, 02:44:06,VALID,918.632,VALID,0.0,VALID,89.908,VALID,0.002,VALID,19.766,VALID,356.0,VALID,0.718,
2017-04-04, 02:45:06,VALID,918.637,VALID,0.0,VALID,89.784,VALID,-0.004,VALID,19.718,VALID,347.0,VALID,0.345,
2017-04-04, 02:46:06,VALID,918.629,VALID,0.0,VALID,90.262,VALID,0.003,VALID,19.645,VALID,287.0,VALID,0.43,
2017-04-04, 02:47:06,VALID,918.63,VALID,0.0,VALID,90.493,VALID,0.019,VALID,19.608,VALID,269.0,VALID,0.273,
2017-04-04, 02:48:06,VALID,918.616,VALID,0.0,VALID,90.621,VALID,0.011,VALID,19.578,VALID,267.0,VALID,0.183,
2017-04-04, 02:49:06,VALID,918.591,VALID,0.0,VALID,90.631,VALID,0.006,VALID,19.58,VALID,267.0,VALID,0.013,
2017-04-04, 02:50:06,VALID,918.578,VALID,0.0,VALID,90.079,VALID,0.006,VALID,19.582,VALID,268.0,VALID,0.036,
2017-04-04, 02:51:06,VALID,918.578,VALID,0.0,VALID,90.271,VALID,-0.01,VALID,19.552,VALID,272.0,VALID,0.055,
2017-04-04, 02:52:06,VALID,918.569,VALID,0.0,VALID,90.094,VALID,-0.009,VALID,19.473,VALID,335.0,VALID,0.189,
2017-04-04, 02:53:06,VALID,918.54,VALID,0.0,VALID,91.017,VALID,-0.022,VALID,19.418,VALID,359.0,VALID,0.32,
2017-04-04, 02:54:06,VALID,918.498,VALID,0.0,VALID,91.323,VALID,-0.008,VALID,19.398,VALID,3.0,VALID,0.1,
2017-04-04, 02:55:06,VALID,918.469,VALID,0.0,VALID,91.62,VALID,-0.017,VALID,19.377,VALID,3.0,VALID,0.0,
2017-04-04, 02:56:06,VALID,918.45,VALID,0.0,VALID,91.557,VALID,-0.01,VALID,19.368,VALID,3.0,VALID,0.006,
2017-04-04, 02:57:06,VALID,918.443,VALID,0.0,VALID,91.507,VALID,-0.015,VALID,19.369,VALID,3.0,VALID,0.057,
2017-04-04, 02:58:06,VALID,918.438,VALID,0.0,VALID,91.511,VALID,-0.01,VALID,19.382,VALID,3.0,VALID,0.371,
2017-04-04, 02:59:06,VALID,918.419,VALID,0.0,VALID,91.525,VALID,-0.016,VALID,19.391,VALID,3.0,VALID,0.466,
2017-04-04, 03:00:06,VALID,918.385,VALID,0.0,VALID,91.355,VALID,-0.021,VALID,19.396,VALID,3.0,VALID,0.322,
2017-04-04, 03:01:06,VALID,918.362,VALID,0.0,VALID,91.424,VALID,-0.021,VALID,19.361,VALID,5.0,VALID,0.269,
2017-04-04, 03:02:06,VALID,918.326,VALID,0.0,VALID,91.463,VALID,-0.016,VALID,19.329,VALID,15.0,VALID,0.194,
2017-04-04, 03:03:06,VALID,918.308,VALID,0.0,VALID,91.85,VALID,-0.005,VALID,19.323,VALID,28.0,VALID,0.128,
2017-04-04, 03:04:06,VALID,918.283,VALID,0.0,VALID,91.878,VALID,-0.009,VALID,19.343,VALID,25.0,VALID,0.213,
2017-04-04, 03:05:06,VALID,918.247,VALID,0.0,VALID,91.525,VALID,-0.016,VALID,19.34,VALID,21.0,VALID,0.307,
2017-04-04, 03:06:06,VALID,918.211,VALID,0.0,VALID,91.422,VALID,-0.008,VALID,19.29,VALID,21.0,VALID,0.391,
2017-04-04, 03:07:06,VALID,918.186,VALID,0.0,VALID,91.857,VALID,0.0,VALID,19.232,VALID,21.0,VALID,0.388,
2017-04-04, 03:08:06,VALID,918.167,VALID,0.0,VALID,92.141,VALID,0.001,VALID,19.196,VALID,20.0,VALID,0.41,
2017-04-04, 03:09:06,VALID,918.134,VALID,0.0,VALID,92.525,VALID,0.023,VALID,19.199,VALID,19.0,VALID,0.466,
2017-04-04, 03:10:06,VALID,918.108,VALID,0.0,VALID,92.497,VALID,0.02,VALID,19.218,VALID,19.0,VALID,0.434,
2017-04-04, 03:11:06,VALID,918.095,VALID,0.0,VALID,92.43,VALID,0.024,VALID,19.243,VALID,19.0,VALID,0.348,
2017-04-04, 03:12:06,VALID,918.083,VALID,0.0,VALID,92.246,VALID,0.002,VALID,19.26,VALID,22.0,VALID,0.205,
2017-04-04, 03:13:06,VALID,918.074,VALID,0.0,VALID,92.02,VALID,0.01,VALID,19.243,VALID,22.0,VALID,0.136,
2017-04-04, 03:14:06,VALID,918.073,VALID,0.0,VALID,92.016,VALID,0.009,VALID,19.184,VALID,22.0,VALID,0.138,
2017-04-04, 03:15:06,VALID,918.099,VALID,0.0,VALID,92.25,VALID,0.009,VALID,19.163,VALID,22.0,VALID,0.0,
2017-04-04, 03:16:06,VALID,918.116,VALID,0.0,VALID,92.409,VALID,0.007,VALID,19.188,VALID,22.0,VALID,0.0,
2017-04-04, 03:17:06,VALID,918.141,VALID,0.0,VALID,92.044,VALID,-0.001,VALID,19.234,VALID,30.0,VALID,0.023,
2017-04-04, 03:18:06,VALID,918.146,VALID,0.0,VALID,91.739,VALID,0.008,VALID,19.244,VALID,38.0,VALID,0.0,
2017-04-04, 03:19:06,VALID,918.153,VALID,0.0,VALID,91.621,VALID,0.016,VALID,19.268,VALID,87.0,VALID,0.116,
2017-04-04, 03:20:06,VALID,918.167,VALID,0.0,VALID,91.718,VALID,0.017,VALID,19.258,VALID,136.0,VALID,0.263,
2017-04-04, 03:21:06,VALID,918.182,VALID,0.0,VALID,91.955,VALID,0.008,VALID,19.254,VALID,136.0,VALID,0.171,
2017-04-04, 03:22:06,VALID,918.198,VALID,0.0,VALID,91.948,VALID,0.003,VALID,19.253,VALID,136.0,VALID,0.039,
2017-04-04, 03:23:06,VALID,918.19,VALID,0.0,VALID,91.772,VALID,0.009,VALID,19.261,VALID,136.0,VALID,0.001,
2017-04-04, 03:24:06,VALID,918.17,VALID,0.0,VALID,91.53,VALID,0.001,VALID,19.28,VALID,136.0,VALID,0.0,
2017-04-04, 03:25:06,VALID,918.151,VALID,0.0,VALID,91.166,VALID,-0.002,VALID,19.289,VALID,136.0,VALID,0.0,
2017-04-04, 03:26:06,VALID,918.156,VALID,0.0,VALID,90.677,VALID,0.002,VALID,19.282,VALID,136.0,VALID,0.0,
2017-04-04, 03:27:06,VALID,918.146,VALID,0.0,VALID,90.648,VALID,-0.001,VALID,19.26,VALID,136.0,VALID,0.0,
2017-04-04, 03:28:06,VALID,918.147,VALID,0.0,VALID,90.957,VALID,-0.006,VALID,19.272,VALID,137.0,VALID,0.01,
2017-04-04, 03:29:06,VALID,918.135,VALID,0.0,VALID,91.066,VALID,-0.013,VALID,19.32,VALID,256.0,VALID,0.347,
2017-04-04, 03:30:06,VALID,918.121,VALID,0.0,VALID,91.558,VALID,-0.003,VALID,19.397,VALID,290.0,VALID,0.49,
2017-04-04, 03:31:06,VALID,918.099,VALID,0.0,VALID,91.265,VALID,-0.013,VALID,19.506,VALID,287.0,VALID,0.495,
2017-04-04, 03:32:06,VALID,918.06,VALID,0.0,VALID,90.756,VALID,0.01,VALID,19.587,VALID,310.0,VALID,0.052,
2017-04-04, 03:33:06,VALID,918.033,VALID,0.0,VALID,89.912,VALID,0.01,VALID,19.561,VALID,341.0,VALID,0.162,
2017-04-04, 03:34:06,VALID,918.018,VALID,0.0,VALID,90.172,VALID,-0.001,VALID,19.41,VALID,1.0,VALID,0.138,
2017-04-04, 03:35:06,VALID,918.003,VALID,0.0,VALID,91.341,VALID,-0.001,VALID,19.273,VALID,1.0,VALID,0.307,
2017-04-04, 03:36:06,VALID,917.996,VALID,0.0,VALID,91.725,VALID,0.005,VALID,19.145,VALID,1.0,VALID,0.452,
2017-04-04, 03:37:06,VALID,917.989,VALID,0.0,VALID,92.56,VALID,-0.004,VALID,19.096,VALID,354.0,VALID,0.5,
2017-04-04, 03:38:06,VALID,917.972,VALID,0.0,VALID,92.683,VALID,0.003,VALID,19.139,VALID,355.0,VALID,0.341,
2017-04-04, 03:39:06,VALID,917.981,VALID,0.0,VALID,92.441,VALID,-0.016,VALID,19.192,VALID,358.0,VALID,0.267,
2017-04-04, 03:40:06,VALID,917.975,VALID,0.0,VALID,92.215,VALID,-0.01,VALID,19.224,VALID,342.0,VALID,0.348,